Temperature
19 19 19 19 19 19 19 19 19 19 19 20 20 20 20 20 20 20 20 20 20 20 20 19 19 19 19 19 19 19 19 19 19 18 18 18 18 18 18 18 18 19 19
19 19 19 19 19 19 19 19 19 19 19 19 19 20 20 20 20 20 20 20 20 20 19 19 19 19 19 19 19 19 18 18 18 18 18 18 18 18 18 18 18 18 19
18 18 18 18 18 19 19 19 19 19 19 19 19 19 19 19 19 19 19 19 19 19 19 19 19 19 19 19 19 19 18 18 18 18 18 18 18 18 18 18 18 18 18
18 18 18 18 18 18 18 18 18 19 19 19 19 19 19 19 19 19 19 19 19 19 19 19 19 19 19 19 19 18 18 18 18 18 18 18 18 18 18 18 18 18 18
18 18 18 18 18 18 18 18 18 18 18 18 18 18 18 18 18 18 19 19 19 19 19 19 19 19 19 19 19 18 18 18 18 18 18 18 18 18 18 18 18 18 18
18 18 18 18 18 18 17 17 18 18 18 18 18 18 18 18 18 18 18 18 18 18 19 19 19 19 18 18 18 18 18 18 18 18 18 18 18 18 18 18 18 18 18
18 18 18 18 17 17 17 17 17 17 17 17 17 17 17 18 18 18 18 18 18 18 18 18 18 18 18 18 18 18 18 18 18 18 18 18 18 18 18 18 18 18 18
18 17 17 17 17 17 17 17 17 17 17 17 17 17 17 17 17 17 17 17 17 18 18 18 18 18 18 18 18 18 18 18 18 18 18 18 18 18 18 18 18 18 18
17 17 17 17 17 17 17 17 17 17 16 17 17 17 17 17 17 17 17 17 17 17 17 18 18 18 18 18 18 18 18 18 18 18 18 18 18 18 18 18 18 18 18
17 17 17 17 17 17 16 16 16 16 16 16 16 16 16 16 16 17 17 17 17 17 17 17 17 17 17 17 18 18 18 18 18 18 18 18 18 18 18 18 18 18 18
17 17 17 16 16 16 16 16 16 16 16 16 16 16 16 16 16 16 16 17 17 17 17 17 17 17 17 17 17 17 17 18 18 18 18 18 18 18 18 18 18 18 18
17 17 16 16 16 16 15 15 15 15 15 15 15 15 15 16 16 16 16 16 16 16 17 17 17 17 17 17 17 17 17 17 18 18 18 18 18 18 18 18 18 18 18
17 16 16 16 15 15 15 15 15 15 15 15 15 15 15 15 15 15 15 16 16 16 16 16 16 17 17 17 17 17 17 17 17 18 18 18 18 18 18 18 18 18 18
17 16 16 15 15 15 15 14 14 14 14 14 15 15 15 15 15 15 15 15 16 16 16 16 16 16 16 16 16 17 17 17 17 17 17 18 18 18 18 18 18 18 18
17 16 16 15 15 14 14 14 14 14 14 14 14 14 14 14 15 15 15 15 15 15 15 16 16 16 16 16 16 16 17 17 17 17 17 17 18 18 18 18 18 18 18
17 16 15 15 14 14 14 14 14 13 13 13 14 14 14 14 14 14 14 15 15 15 15 15 16 16 16 16 16 16 16 17 17 17 17 17 17 18 18 17 17 17 18
17 16 15 15 14 14 14 13 13 13 13 13 13 13 14 14 14 14 14 14 14 15 15 15 15 15 16 16 16 16 16 17 17 17 17 17 17 17 17 17 17 17 17
16 16 15 15 14 14 14 13 13 13 13 13 13 13 13 13 14 14 14 14 14 14 14 15 15 15 15 15 16 16 16 16 17 17 17 17 18 17 17 17 17 17 17
16 16 15 14 14 14 13 13 13 13 13 13 13 13 13 13 13 13 13 13 14 14 14 14 14 15 15 15 16 16 16 16 17 17 17 17 17 18 18 17 17 17 17
16 16 15 14 14 13 13 13 13 13 12 12 12 13 13 13 13 13 13 13 13 13 13 14 14 14 15 15 15 16 16 16 16 17 17 17 17 17 18 17 17 17 17
16 15 15 14 14 13 13 13 13 13 12 12 12 12 12 12 12 12 13 13 13 13 13 13 14 14 14 14 15 15 16 16 16 16 17 17 17 17 17 17 17 17 17
16 15 15 14 13 13 13 13 12 12 12 12 12 12 12 12 12 12 12 12 12 13 13 13 13 14 14 14 14 15 15 16 16 16 16 17 17 17 17 17 17 17 17
16 15 15 14 13 13 13 12 12 12 12 12 12 12 12 12 12 12 12 12 12 12 12 13 13 13 13 14 14 14 14 15 15 16 16 16 17 17 17 17 17 17 17
16 15 15 14 13 13 13 12 12 12 12 12 12 12 12 12 12 12 12 12 12 12 12 12 12 13 13 13 13 14 14 14 14 15 15 16 16 16 17 17 17 17 17
16 15 15 14 14 13 13 12 12 12 12 12 12 12 12 11 11 11 11 11 12 12 12 12 12 12 13 13 13 13 13 14 14 14 14 15 16 16 16 16 17 17 17
16 15 15 14 14 13 13 13 12 12 12 12 12 12 12 11 11 11 11 11 11 11 12 12 12 12 12 12 13 13 13 13 13 13 14 14 15 16 16 16 16 17 17
Wind_Speed
3 4 7 8 8 7 7 7 7 8 8 8 9 9 8 8 8 7 7 6 6 6 6 6 6 6 6 7 7 7 6 6 6 6 6 6 5 5 6 6 7 7 8
3 5 8 8 7 6 6 6 6 7 7 7 7 8 7 7 7 6 6 5 5 5 5 5 4 4 5 5 5 5 5 5 4 4 4 4 5 5 5 6 6 6 8
3 4 6 7 6 6 5 5 6 5 6 6 6 7 7 7 7 6 6 5 5 5 5 4 3 3 4 4 4 4 4 4 3 3 3 3 2 4 5 5 6 6 7
4 4 4 4 4 4 5 5 6 6 5 6 6 6 7 7 7 7 7 6 6 6 5 4 4 3 3 3 3 3 3 3 3 3 3 2 1 3 4 4 5 6 7
3 4 3 3 2 2 3 3 3 4 5 5 6 7 7 7 7 7 7 7 7 7 6 6 5 4 3 3 3 2 2 2 2 3 2 2 1 3 4 4 5 5 6
3 3 2 2 1 0 1 2 2 3 4 5 5 6 7 7 8 8 8 8 8 8 7 7 7 6 5 4 3 2 1 1 3 3 2 2 3 3 4 4 5 5 6
3 3 3 3 2 2 3 3 4 4 5 5 6 6 7 7 8 8 8 8 8 8 8 8 8 8 7 5 4 3 2 1 2 2 2 2 4 5 5 5 5 6 6
3 3 4 4 4 4 4 4 5 6 6 7 7 7 8 8 8 9 9 9 9 9 8 9 9 8 8 7 6 4 3 2 2 2 2 3 5 6 6 7 7 6 6
3 3 4 5 6 6 6 6 6 6 7 7 7 8 8 8 9 9 9 9 9 9 9 9 9 9 9 8 7 6 4 3 2 2 3 3 6 6 7 8 8 7 7
3 2 3 4 5 5 6 6 7 7 7 7 8 8 7 7 8 9 9 9 9 9 10 10 9 9 9 9 8 7 5 3 3 3 3 4 6 7 7 8 9 8 7
1 2 2 2 4 5 5 6 7 7 7 7 7 7 7 6 6 7 8 8 9 9 9 8 8 9 9 8 8 7 5 3 4 4 4 6 7 8 8 9 9 9 8
1 1 1 1 2 4 5 6 7 6 7 6 6 6 5 5 5 5 7 8 9 8 7 7 7 8 6 4 5 5 3 3 4 5 6 8 8 8 8 10 11 10 9
2 0 1 1 2 3 3 4 5 6 6 6 6 5 5 4 4 5 5 6 7 7 5 4 5 4 4 3 4 4 4 4 4 5 6 8 9 8 9 10 11 11 10
3 2 0 1 1 2 3 3 3 3 4 4 5 5 3 2 2 3 2 4 4 4 3 3 2 3 3 4 5 4 4 4 5 6 7 8 9 9 10 10 12 11 11
4 2 1 0 1 2 2 3 3 3 3 4 5 5 3 1 2 2 2 3 3 3 2 2 2 2 3 3 4 4 4 5 5 6 7 8 9 9 10 10 11 12 12
4 3 1 0 1 2 2 2 2 3 4 4 4 5 4 2 2 2 3 2 3 3 3 2 2 2 2 2 3 3 4 5 5 6 6 7 9 9 10 11 11 12 13
5 3 2 2 1 2 2 3 2 3 3 3 4 5 6 4 3 2 2 3 3 4 3 2 2 1 2 2 3 4 4 4 5 5 6 6 6 8 10 11 11 12 13
4 3 2 1 1 2 2 2 2 3 3 3 4 5 6 6 5 3 2 3 4 3 2 1 1 1 2 2 3 3 4 4 4 5 5 5 5 5 7 10 12 13 13
5 3 2 0 0 1 2 2 3 3 3 3 4 5 6 6 6 3 2 3 4 2 2 2 1 1 2 2 3 3 4 4 4 4 4 5 5 5 5 7 10 13 14
3 3 2 1 1 1 2 2 3 3 3 3 4 4 6 6 6 4 2 4 4 2 2 2 2 1 2 2 3 2 3 4 4 4 4 3 4 5 5 5 6 9 13
3 3 2 2 1 1 1 2 2 2 3 3 3 5 6 6 6 4 3 3 3 2 2 2 1 1 1 1 0 1 2 3 4 4 3 3 3 4 5 5 6 7 9
4 4 3 3 2 1 1 1 1 1 2 3 3 4 6 6 6 4 3 3 3 3 3 3 2 1 1 0 1 0 2 2 2 2 3 3 4 3 3 5 6 7 8
5 6 5 5 3 2 1 1 1 2 3 3 4 4 5 6 6 4 4 3 3 2 2 3 2 1 1 1 0 1 1 1 2 1 2 2 2 3 3 3 6 8 9
7 6 5 5 4 2 1 0 1 0 1 2 3 4 5 5 5 5 4 3 3 2 2 3 2 1 0 1 1 1 1 1 1 1 2 1 2 3 3 4 5 7 9
6 6 5 4 4 3 2 1 1 1 2 2 3 4 5 5 5 5 4 3 3 3 3 2 2 1 0 1 1 0 0 0 1 1 2 2 2 2 3 4 4 5 8
5 5 5 5 5 3 3 2 2 2 2 3 3 4 4 4 4 5 4 3 3 3 3 2 2 1 1 0 1 1 1 1 1 2 2 2 2 2 3 3 3 4 5
Wind_Direction
217 207 193 170 158 150 148 151 153 151 149 146 144 143 143 141 138 134 131 127 123 120 113 105 101 98 96 93 89 86 85 85 88 89 93 93 92 96 102 106 104 104 108
192 191 186 170 162 158 160 163 166 168 164 162 161 159 159 158 155 153 152 147 144 138 132 121 115 107 102 101 96 89 85 84 88 92 91 95 99 103 108 113 114 121 119
130 160 175 173 168 166 171 180 182 185 184 181 179 179 179 179 178 178 178 174 170 164 157 151 141 134 122 113 104 93 84 81 87 99 99 91 105 119 121 124 123 126 126
112 122 155 173 174 179 188 194 201 204 209 206 203 202 201 200 199 199 196 194 192 188 182 179 178 173 157 142 127 105 87 72 76 96 112 138 156 142 141 138 135 132 132
90 101 132 155 168 188 208 215 223 229 232 232 229 224 221 217 217 217 215 211 209 207 202 200 201 200 195 180 162 139 105 76 76 90 123 156 178 171 159 154 145 143 138
77 81 92 100 98 15 287 277 274 270 266 262 259 252 244 238 237 236 234 228 226 223 219 214 211 212 214 212 201 190 155 96 94 95 136 178 200 200 179 170 161 157 150
79 55 52 61 43 12 351 344 332 318 304 296 287 278 272 265 257 252 250 246 242 238 235 227 222 219 222 224 223 221 222 192 136 125 154 196 213 210 193 182 175 170 164
79 49 35 28 20 7 357 345 334 326 317 313 311 305 296 287 279 269 262 258 253 248 243 241 234 229 228 229 229 230 232 228 164 149 179 213 222 214 202 194 186 176 171
61 50 31 23 15 6 358 348 338 330 325 324 320 320 313 305 294 284 278 272 265 258 252 249 246 241 239 237 235 237 239 231 191 204 217 220 232 223 210 199 192 184 178
54 40 19 15 14 9 0 356 351 344 339 335 331 329 326 323 316 306 297 292 282 271 262 257 252 248 245 245 245 245 247 234 213 224 230 237 240 231 217 204 197 191 186
44 26 18 11 5 359 352 358 358 352 348 347 343 338 344 341 331 315 306 301 292 283 274 269 262 254 251 249 255 260 258 230 227 233 236 249 248 239 223 207 201 195 192
191 336 9 9 359 1 4 6 2 356 350 346 341 338 339 336 326 318 315 313 306 298 290 272 261 257 253 257 265 270 262 243 239 241 241 249 251 241 223 211 202 198 192
189 151 21 355 358 6 356 354 356 351 350 349 347 345 342 340 331 329 324 319 319 315 310 291 269 245 223 223 241 244 247 245 238 245 249 251 249 242 225 213 203 200 195
162 169 164 21 20 13 9 355 353 348 347 349 348 352 349 340 332 327 317 312 315 308 295 287 257 236 225 220 226 229 236 236 236 243 251 252 246 240 228 218 206 203 199
172 183 188 53 39 9 5 350 6 349 344 344 350 356 357 334 322 320 311 315 312 306 289 278 259 224 213 216 232 226 230 237 236 238 245 248 244 239 231 221 211 205 201
189 194 196 150 29 19 13 359 349 349 347 353 357 356 360 351 329 324 321 319 313 312 294 276 275 250 226 211 230 228 230 236 235 236 240 247 247 239 229 223 218 211 205
192 196 206 197 67 30 15 358 2 355 1 4 0 3 8 2 346 337 329 325 313 315 304 290 280 244 238 230 231 231 224 226 231 237 240 243 245 235 223 219 221 217 210
182 193 223 165 80 26 13 354 353 2 8 3 359 2 4 3 358 352 345 329 323 322 311 291 273 253 238 231 234 235 228 225 233 235 234 233 235 232 223 218 218 218 214
185 185 185 113 51 357 3 358 359 6 9 3 2 1 357 358 2 3 348 331 337 332 325 312 277 228 241 242 237 231 226 227 229 235 229 229 228 223 219 221 221 217 214
173 172 176 206 293 350 358 358 1 8 3 3 1 356 358 356 357 358 348 345 350 351 341 333 307 267 244 252 258 254 231 229 224 225 230 225 223 220 215 214 219 221 216
162 175 200 224 261 360 10 355 352 341 334 342 343 352 356 356 355 355 354 355 358 360 340 330 316 314 290 258 273 306 294 241 232 230 224 220 220 220 213 210 209 214 218
185 199 218 234 246 247 239 259 259 284 302 301 317 345 357 357 355 360 1 353 351 352 358 360 356 345 317 334 140 107 321 329 283 240 223 220 222 211 217 220 210 210 212
205 211 217 227 236 245 250 23 17 13 355 352 345 341 340 346 352 358 359 352 349 352 345 338 342 11 318 312 246 162 163 237 302 315 255 232 213 204 215 216 217 217 213
216 215 221 226 234 242 210 145 99 50 319 297 303 312 323 342 350 359 1 357 351 349 341 328 8 337 252 296 309 284 224 186 189 334 331 307 257 225 219 222 222 219 216
212 211 218 226 239 240 224 207 187 248 263 293 309 327 338 340 348 356 356 355 352 348 342 342 354 8 321 232 250 286 286 310 199 197 284 311 313 272 243 232 222 221 217
217 217 218 225 243 240 232 227 218 244 270 305 322 332 334 331 333 345 349 350 346 347 340 335 345 1 1 278 245 225 208 192 191 197 230 266 280 279 265 247 231 224 219
Height
1526 1528 1529 1530 1532 1533 1534 1535 1535 1536 1536 1537 1537 1537 1538 1538 1538 1538 1538 1538 1537 1537 1537 1537 1537 1537 1537 1537 1537 1537 1537 1537 1537 1537 1537 1537 1537 1537 1537 1537 1537 1537 1538
1526 1527 1529 1530 1532 1533 1534 1535 1536 1536 1536 1536 1537 1537 1537 1537 1537 1537 1537 1537 1537 1537 1537 1537 1537 1537 1537 1537 1537 1537 1537 1537 1537 1537 1537 1537 1537 1537 1537 1538 1538 1538 1539
1527 1528 1529 1530 1532 1532 1534 1535 1535 1535 1536 1536 1536 1537 1537 1537 1537 1537 1537 1537 1537 1537 1537 1537 1537 1537 1537 1537 1537 1537 1537 1538 1538 1538 1538 1538 1538 1538 1538 1538 1539 1539 1539
1528 1529 1529 1531 1532 1532 1533 1534 1535 1535 1535 1535 1535 1536 1536 1536 1536 1536 1536 1536 1536 1536 1536 1537 1537 1537 1537 1537 1537 1537 1537 1537 1538 1538 1538 1538 1538 1538 1538 1539 1539 1540 1540
1529 1529 1530 1531 1531 1532 1532 1533 1534 1534 1534 1534 1534 1535 1535 1535 1535 1535 1535 1534 1534 1535 1535 1535 1536 1536 1536 1536 1536 1537 1537 1537 1538 1538 1538 1538 1538 1538 1538 1539 1539 1540 1541
1529 1530 1531 1531 1531 1531 1532 1532 1532 1532 1532 1533 1533 1533 1533 1533 1533 1533 1533 1533 1533 1533 1534 1534 1534 1535 1535 1536 1536 1536 1536 1537 1537 1538 1538 1538 1538 1538 1539 1539 1540 1540 1541
1530 1531 1531 1531 1531 1531 1531 1531 1531 1531 1530 1531 1531 1531 1531 1531 1531 1531 1531 1531 1531 1532 1532 1532 1533 1533 1534 1535 1535 1535 1536 1536 1537 1537 1537 1538 1538 1538 1538 1539 1539 1540 1541
1531 1531 1531 1531 1530 1530 1530 1530 1529 1529 1528 1528 1528 1528 1528 1528 1528 1528 1528 1528 1529 1529 1530 1531 1531 1532 1533 1533 1534 1534 1535 1535 1536 1536 1537 1537 1537 1538 1538 1538 1539 1540 1541
1531 1531 1531 1530 1530 1529 1528 1528 1527 1527 1526 1526 1525 1525 1525 1525 1525 1526 1526 1526 1526 1527 1528 1528 1529 1530 1531 1532 1532 1533 1533 1534 1534 1535 1536 1536 1537 1537 1537 1538 1539 1540 1541
1531 1531 1531 1530 1529 1528 1527 1527 1526 1525 1524 1523 1523 1522 1522 1522 1522 1522 1523 1523 1523 1524 1525 1526 1527 1528 1528 1529 1530 1531 1532 1532 1533 1534 1535 1535 1536 1536 1537 1537 1538 1539 1540
1531 1530 1530 1529 1528 1527 1526 1525 1524 1523 1522 1521 1521 1520 1520 1520 1520 1520 1520 1520 1521 1521 1522 1523 1524 1525 1526 1527 1528 1529 1530 1531 1532 1532 1533 1534 1535 1535 1536 1537 1538 1539 1540
1530 1530 1529 1528 1527 1526 1525 1523 1522 1521 1520 1520 1519 1518 1518 1518 1517 1517 1517 1517 1518 1518 1519 1520 1521 1522 1523 1524 1526 1527 1528 1529 1530 1530 1532 1533 1533 1534 1535 1536 1537 1538 1539
1530 1529 1528 1528 1526 1525 1523 1522 1520 1519 1518 1518 1517 1517 1516 1516 1515 1515 1515 1514 1515 1515 1516 1517 1518 1519 1520 1521 1523 1525 1526 1526 1527 1528 1530 1531 1532 1533 1534 1535 1536 1537 1538
1529 1529 1528 1527 1525 1524 1522 1520 1519 1517 1516 1516 1515 1515 1514 1514 1514 1513 1513 1512 1512 1512 1513 1514 1515 1516 1517 1518 1520 1522 1523 1524 1525 1526 1528 1529 1530 1531 1532 1533 1534 1536 1537
1528 1528 1527 1526 1525 1523 1521 1519 1517 1516 1515 1514 1513 1513 1512 1512 1511 1511 1511 1511 1510 1510 1511 1511 1512 1513 1514 1515 1517 1519 1520 1522 1523 1524 1526 1527 1528 1529 1531 1532 1533 1534 1536
1528 1527 1526 1525 1524 1522 1520 1518 1516 1515 1514 1513 1512 1511 1510 1510 1509 1509 1509 1508 1508 1508 1508 1508 1509 1510 1511 1512 1514 1516 1517 1519 1520 1522 1523 1525 1526 1528 1529 1530 1531 1533 1535
1527 1527 1526 1524 1523 1521 1519 1517 1515 1514 1513 1512 1511 1510 1509 1508 1507 1507 1506 1506 1506 1506 1506 1506 1506 1507 1508 1509 1511 1512 1514 1516 1518 1519 1521 1523 1524 1526 1527 1529 1530 1531 1533
1526 1526 1525 1524 1522 1520 1518 1516 1515 1513 1512 1511 1510 1508 1508 1507 1506 1505 1504 1504 1503 1503 1503 1504 1504 1505 1506 1506 1508 1509 1511 1513 1515 1516 1518 1520 1522 1524 1525 1527 1528 1530 1531
1526 1525 1524 1523 1521 1519 1517 1516 1514 1513 1512 1510 1509 1508 1507 1505 1504 1503 1502 1502 1501 1501 1501 1501 1502 1502 1503 1504 1505 1506 1508 1509 1511 1513 1515 1517 1519 1521 1523 1525 1526 1528 1530
1525 1524 1523 1522 1520 1519 1517 1515 1514 1512 1511 1510 1509 1507 1506 1505 1504 1502 1501 1500 1500 1499 1499 1499 1499 1500 1500 1501 1502 1503 1505 1506 1508 1509 1511 1513 1516 1518 1520 1522 1524 1526 1527
1523 1523 1522 1521 1519 1518 1516 1515 1513 1512 1511 1510 1508 1507 1506 1504 1503 1502 1500 1499 1498 1498 1497 1497 1497 1497 1498 1499 1500 1500 1502 1503 1504 1506 1507 1510 1512 1515 1517 1519 1521 1523 1525
1522 1522 1521 1520 1519 1517 1515 1514 1513 1512 1510 1509 1508 1507 1505 1504 1502 1501 1500 1498 1497 1497 1496 1495 1495 1495 1496 1497 1498 1498 1499 1501 1501 1502 1504 1506 1509 1511 1513 1516 1518 1520 1523
1520 1520 1520 1519 1518 1516 1515 1514 1513 1512 1510 1509 1508 1506 1505 1503 1502 1501 1499 1498 1497 1496 1495 1494 1494 1494 1494 1495 1496 1497 1497 1498 1499 1500 1501 1503 1505 1508 1510 1512 1515 1517 1520
1519 1519 1519 1518 1517 1516 1515 1514 1513 1511 1510 1509 1507 1506 1504 1503 1502 1500 1499 1497 1496 1495 1494 1494 1493 1493 1493 1494 1494 1495 1497 1497 1498 1498 1499 1500 1502 1504 1507 1509 1511 1513 1516
1518 1518 1518 1517 1517 1516 1515 1514 1512 1511 1510 1508 1507 1505 1504 1503 1501 1500 1498 1497 1495 1494 1494 1493 1492 1492 1492 1492 1493 1494 1495 1496 1496 1497 1497 1498 1500 1501 1503 1505 1507 1509 1512
1516 1517 1517 1516 1516 1515 1514 1513 1512 1511 1509 1508 1507 1505 1504 1502 1501 1499 1497 1496 1495 1494 1493 1492 1492 1491 1491 1491 1491 1492 1493 1494 1494 1495 1496 1496 1497 1498 1500 1501 1503 1505 1507